User: anonymous   Login
Location: Unspecified
(0.0000°N, 0.0000°E)
Time: 12:54:31
(UTC+00:00)
Language:

OFEQ 10 - Orbit

View from above orbital plane
View from above orbital plane
View from above satellite
View from above satellite

Ground track
Ground track

The orbit data is extracted from the following two-line orbital elements,

1 39650U 14019A   21013.68111488 0.00000000  00000-0  00000-0 0    05
2 39650 140.9227 112.2705 0008000 353.8793   6.1200 15.16851646    06
Epoch (UTC): 13 January 2021 16:20:48
Eccentricity: 0.0008000
inclination: 140.9227°
perigee height: 510 km
apogee height: 521 km
right ascension of ascending node: 112.2705°
argument of perigee: 353.8793°
revolutions per day: 15.16851646
mean anomaly at epoch: 6.1200°
orbit number at epoch: 0

The dashed part of the orbit path shows where the satellite is in the earth's shadow,  

DLR